EW6292 Weather Reports


time (UTC)temp
F
wind
direction
speed
knots
gust
knots
rain 1hr
in
rain 24hr
in
rain mn
in
humidity
%
barometer
mb
20260505153030 61 184 1.7 3.5 0.03 0.28 0.28 89 1008.5
20260505152524 60 198 0.9 2.6 0.04 0.28 0.28 89 1008.5
20260505152019 60 153 0.9 2.6 0.05 0.28 0.28 88 1008.4
20260505151512 60 159 1.7 3.5 0.06 0.28 0.28 88 1008.5
20260505151009 60 138 1.7 5.2 0.08 0.28 0.28 88 1008.6
20260505150500 60 129 1.7 5.2 0.10 0.28 0.28 88 1008.4
20260505140350 60 173 1.7 4.3 0.17 0.17 0.18 83 1009.1
20260505130236 63 184 2.6 4.3 0.00 0.00 0.00 75 1008.2
20260505124721 62 186 2.6 5.2 0.00 0.00 0.00 75 1008.3
20260505124213 62 186 1.7 5.2 0.00 0.00 0.00 75 1008.4
20260505123708 62 192 1.7 3.5 0.00 0.00 0.00 76 1008.3
20260505123214 62 170 1.7 3.5 0.00 0.00 0.00 76 1008.2
20260505122654 62 173 1.7 4.3 0.00 0.00 0.00 76 1008.2
20260505122149 61 187 1.7 4.3 0.00 0.00 0.00 76 1008.0
20260505121642 61 190 1.7 2.6 0.00 0.00 0.00 76 1007.8
20260505121137 61 163 1.7 3.5 0.00 0.00 0.00 77 1007.9
20260505120631 61 179 0.9 3.5 0.00 0.00 0.00 77 1007.8
20260505120124 60 185 0.9 2.6 0.00 0.00 0.00 76 1007.7
20260505115619 60 183 0.9 2.6 0.00 0.00 0.00 76 1007.8
20260505115601 60 178 0.9 1.7 0.00 0.00 0.00 76 1007.7
20260505114619 60 176 0.9 2.6 0.00 0.00 0.00 76 1007.6
20260505114119 60 186 0.9 2.6 0.00 0.00 0.00 76 1007.6
20260505113617 60 159 0.0 1.7 0.00 0.00 0.00 76 1007.5
20260505113114 60 180 0.0 1.7 0.00 0.00 0.00 75 1007.5
20260505112613 60 175 0.0 0.0 0.00 0.00 0.00 75 1007.5
20260505112334 60 175 0.0 0.9 0.00 0.00 0.00 74 1007.4
20260505111613 61 184 0.0 0.9 0.00 0.00 0.00 74 1007.4
20260505111339 61 167 0.0 0.0 0.00 0.00 0.00 74 1007.3
20260505110610 61 167 0.0 0.0 0.00 0.00 0.00 74 1007.4
20260505110110 61 167 0.0 0.0 0.00 0.00 0.00 73 1007.6
20260505101606 62 196 1.7 3.5 0.00 0.00 0.00 72 1007.6
20260505101120 62 192 1.7 3.5 0.00 0.00 0.00 72 1007.6
20260505100607 62 186 0.9 2.6 0.00 0.00 0.00 72 1007.7
20260505100106 62 198 0.9 2.6 0.00 0.00 0.00 72 1007.7
20260505095607 62 187 0.9 2.6 0.00 0.00 0.00 72 1007.6
20260505095107 62 191 1.7 2.6 0.00 0.00 0.00 71 1007.7
20260505094609 62 199 1.7 2.6 0.00 0.00 0.00 71 1007.8
20260505094107 62 196 1.7 2.6 0.00 0.00 0.00 71 1007.9
20260505093609 62 201 1.7 2.6 0.00 0.00 0.00 71 1007.8
20260505093101 62 204 1.7 2.6 0.00 0.00 0.00 71 1007.8
20260505092601 62 209 0.9 2.6 0.00 0.00 0.00 70 1007.8
20260505092101 62 200 0.0 2.6 0.00 0.00 0.00 70 1007.6
20260505091601 62 191 0.9 2.6 0.00 0.00 0.00 69 1007.5
20260505091318 62 196 0.9 2.6 0.00 0.00 0.00 69 1007.6
20260505090822 62 182 0.0 2.6 0.00 0.00 0.00 69 1007.5
20260505090101 63 184 0.0 0.0 0.00 0.00 0.00 68 1007.6
20260505085557 63 174 0.0 0.0 0.00 0.00 0.00 68 1007.6
20260505085057 63 176 0.0 0.0 0.00 0.00 0.00 67 1007.8
20260505084557 63 176 0.0 0.0 0.00 0.00 0.00 68 1007.7
20260505084054 63 218 0.9 2.6 0.00 0.00 0.00 67 1007.6
20260505083551 63 192 1.7 2.6 0.00 0.00 0.00 67 1007.6
20260505083050 64 206 1.7 2.6 0.00 0.00 0.00 67 1007.6
20260505082821 64 210 1.7 2.6 0.00 0.00 0.00 67 1007.4
20260505082050 64 196 1.7 3.5 0.00 0.00 0.00 66 1007.2
20260505081551 64 222 1.7 3.5 0.00 0.00 0.00 66 1007.3
20260505081538 64 199 1.7 3.5 0.00 0.00 0.00 66 1007.3
20260505080551 64 188 1.7 4.3 0.00 0.00 0.00 66 1007.3
20260505080103 64 202 2.6 4.3 0.00 0.00 0.00 65 1007.1
20260505075551 64 192 2.6 5.2 0.00 0.00 0.00 66 1006.9
20260505075046 64 157 2.6 5.2 0.00 0.00 0.00 65 1006.9
20260505074547 64 196 2.6 4.3 0.00 0.00 0.00 65 1006.9
20260505074532 64 196 3.5 6.1 0.00 0.00 0.00 65 1006.9
20260505073547 64 187 2.6 6.1 0.00 0.00 0.00 65 1007.2
20260505073047 64 200 2.6 4.3 0.00 0.00 0.00 65 1007.3
20260505072547 65 192 2.6 4.3 0.00 0.00 0.00 65 1007.3
20260505072047 65 202 2.6 4.3 0.00 0.00 0.00 64 1007.3
20260505071547 65 186 2.6 4.3 0.00 0.00 0.00 64 1007.3
20260505071047 65 205 2.6 5.2 0.00 0.00 0.00 64 1007.3
20260505070544 65 213 2.6 7.0 0.00 0.00 0.00 63 1007.3
20260505070056 65 193 3.5 7.0 0.00 0.00 0.00 63 1007.2
20260505065546 65 211 3.5 6.1 0.00 0.00 0.00 63 1007.2
20260505065043 65 126 3.5 7.8 0.00 0.00 0.00 63 1007.2
20260505064545 65 199 3.5 7.8 0.00 0.00 0.00 63 1007.4
20260505064043 65 182 3.5 7.0 0.00 0.00 0.00 63 1007.4
20260505063544 65 211 3.5 7.0 0.00 0.00 0.00 63 1007.5
20260505063043 65 208 3.5 6.1 0.00 0.00 0.00 63 1007.6
20260505062545 65 198 3.5 8.7 0.00 0.00 0.00 63 1007.7
20260505062042 65 198 3.5 8.7 0.00 0.00 0.00 63 1007.7
20260505061542 65 195 3.5 5.2 0.00 0.00 0.00 63 1007.9
20260505061042 65 197 2.6 6.1 0.00 0.00 0.00 63 1008.1
20260505060541 65 196 2.6 6.1 0.00 0.00 0.00 63 1008.1
20260505060304 65 156 3.5 6.1 0.00 0.00 0.00 63 1008.1
20260505055807 65 191 3.5 5.2 0.00 0.00 0.00 63 1008.2
20260505055641 65 185 3.5 6.1 0.00 0.00 0.00 63 1008.2
20260505054538 65 196 3.5 5.2 0.00 0.00 0.00 63 1008.2
20260505054040 65 215 2.6 4.3 0.00 0.00 0.00 63 1008.3
20260505053536 65 166 2.6 4.3 0.00 0.00 0.00 63 1008.3
20260505053256 65 191 2.6 4.3 0.00 0.00 0.00 63 1008.3
20260505052536 65 205 2.6 4.3 0.00 0.00 0.00 63 1008.4
20260505052036 65 194 2.6 4.3 0.00 0.00 0.00 63 1008.4
20260505051534 65 194 2.6 4.3 0.00 0.00 0.00 62 1008.5
20260505051033 65 192 2.6 4.3 0.00 0.00 0.00 62 1008.6
20260505050530 65 198 2.6 4.3 0.00 0.00 0.00 62 1008.5
20260505050255 65 189 2.6 5.2 0.00 0.00 0.00 61 1008.6
20260505041526 66 196 2.6 5.2 0.00 0.00 0.00 61 1008.7
20260505041024 66 194 2.6 5.2 0.00 0.00 0.00 61 1008.6
20260505040524 66 188 2.6 4.3 0.00 0.00 0.00 61 1008.7
20260505040024 66 167 2.6 4.3 0.00 0.00 0.00 61 1008.6
20260505035524 66 184 2.6 4.3 0.00 0.00 0.00 62 1008.5
20260505035024 66 209 2.6 4.3 0.00 0.00 0.00 62 1008.5
20260505034524 65 192 2.6 4.3 0.00 0.00 0.00 62 1008.4
20260505034016 65 194 2.6 4.3 0.00 0.00 0.00 63 1008.5
20260505033510 65 186 2.6 4.3 0.00 0.00 0.00 63 1008.4
20260505033003 65 184 2.6 3.5 0.00 0.00 0.00 63 1008.5
20260505032721 65 198 2.6 4.3 0.00 0.00 0.00 63 1008.4
20260505031951 65 191 1.7 4.3 0.00 0.00 0.00 63 1008.5
20260505031448 65 188 1.7 3.5 0.00 0.00 0.00 63 1008.4
20260505030940 65 195 1.7 3.5 0.00 0.00 0.00 62 1008.2
20260505030434 66 194 1.7 3.5 0.00 0.00 0.00 62 1008.2
20260505025927 66 205 1.7 3.5 0.00 0.00 0.00 62 1008.1
20260505025421 66 194 1.7 3.5 0.00 0.00 0.00 62 1007.9
20260505024915 66 191 1.7 3.5 0.00 0.00 0.00 62 1007.8
20260505024640 66 194 1.7 3.5 0.00 0.00 0.00 62 1007.8
20260505023904 66 186 1.7 3.5 0.00 0.00 0.00 62 1007.8
20260505023846 66 171 1.7 3.5 0.00 0.00 0.00 61 1007.8
20260505023111 67 169 1.7 3.5 0.00 0.00 0.00 61 1007.8
20260505022346 67 173 1.7 3.5 0.00 0.00 0.00 61 1007.7
20260505021840 67 198 1.7 3.5 0.00 0.00 0.00 60 1007.7
20260505021333 67 182 1.7 3.5 0.00 0.00 0.00 60 1007.6
20260505020830 67 200 1.7 2.6 0.00 0.00 0.00 60 1007.5
20260505020322 67 200 1.7 2.6 0.00 0.00 0.00 59 1007.6
20260505020307 67 194 1.7 2.6 0.00 0.00 0.00 59 1007.3
20260505015310 67 188 1.7 3.5 0.00 0.00 0.00 59 1007.3
20260505014804 68 174 1.7 3.5 0.00 0.00 0.00 58 1007.3
20260505014258 68 193 1.7 3.5 0.00 0.00 0.00 58 1007.1
20260505014017 68 192 1.7 3.5 0.00 0.00 0.00 57 1007.0
20260505013245 69 190 1.7 3.5 0.00 0.00 0.00 56 1007.0
20260505012740 69 197 0.9 2.6 0.00 0.00 0.00 55 1006.9
20260505012237 70 197 0.0 0.0 0.00 0.00 0.00 54 1007.1
20260505011736 70 200 0.0 1.7 0.00 0.00 0.00 54 1007.1
20260505011236 70 197 0.0 1.7 0.00 0.00 0.00 53 1007.0
20260505010734 71 189 0.9 1.7 0.00 0.00 0.00 52 1006.9
20260505010234 71 189 0.9 2.6 0.00 0.00 0.00 51 1006.9
20260505005733 71 198 1.7 2.6 0.00 0.00 0.00 50 1006.9
20260505005232 71 205 1.7 3.5 0.00 0.00 0.00 50 1006.9
20260505004730 72 196 1.7 3.5 0.00 0.00 0.00 49 1007.0
20260505003728 73 213 2.6 4.3 0.00 0.00 0.00 49 1006.9
20260505003228 73 205 2.6 4.3 0.00 0.00 0.00 48 1007.0
20260505002942 74 202 2.6 3.5 0.00 0.00 0.00 47 1007.0
20260505002227 74 202 2.6 4.3 0.00 0.00 0.00 46 1007.1
20260505001726 74 191 3.5 6.1 0.00 0.00 0.00 46 1007.1
20260505001226 74 191 3.5 7.0 0.00 0.00 0.00 44 1007.0
20260505000945 75 200 3.5 7.0 0.00 0.00 0.00 44 1007.0
20260505000443 75 203 3.5 5.2 0.00 0.00 0.00 44 1006.9
20260504235726 75 202 3.5 7.0 0.00 0.00 0.00 44 1007.1
20260504235718 75 205 4.3 7.0 0.00 0.00 0.00 43 1007.1
20260504234719 76 205 3.5 6.1 0.00 0.00 0.00 43 1007.2
20260504234214 76 194 3.5 6.1 0.00 0.00 0.00 44 1007.3
20260504233931 76 192 4.3 7.8 0.00 0.00 0.00 43 1007.4
20260504233201 76 200 4.3 7.8 0.00 0.00 0.00 41 1007.4
20260504232933 77 210 3.5 6.1 0.00 0.00 0.00 42 1007.5
20260504232152 77 185 4.3 7.8 0.00 0.00 0.00 41 1007.5
20260504231644 77 206 5.2 7.8 0.00 0.00 0.00 40 1007.7
20260504231138 78 196 5.2 9.6 0.00 0.00 0.00 40 1007.8
20260504230631 78 196 4.3 9.6 0.00 0.00 0.00 40 1007.7
20260504230347 78 180 3.5 8.7 0.00 0.00 0.00 42 1007.6
20260504225620 78 194 3.5 7.8 0.00 0.00 0.00 41 1007.7
20260504225114 78 203 4.3 7.8 0.00 0.00 0.00 41 1007.6
20260504224608 79 197 5.2 7.8 0.00 0.00 0.00 42 1007.8
20260504224102 79 181 5.2 8.7 0.00 0.00 0.00 41 1007.8
20260504223556 79 201 5.2 8.7 0.00 0.00 0.00 40 1007.7
20260504223050 80 229 5.2 7.8 0.00 0.00 0.00 38 1007.7
20260504222544 80 183 5.2 7.8 0.00 0.00 0.00 38 1007.7
20260504222038 81 213 4.3 7.0 0.00 0.00 0.00 38 1007.6
20260504221534 81 198 4.3 8.7 0.00 0.00 0.00 40 1007.6
20260504221025 81 188 5.2 9.6 0.00 0.00 0.00 38 1007.6
20260504220519 81 190 5.2 9.6 0.00 0.00 0.00 37 1007.7
20260504220239 81 217 5.2 9.6 0.00 0.00 0.00 37 1007.7
20260504215508 81 221 5.2 9.6 0.00 0.00 0.00 38 1007.6
20260504215232 81 182 5.2 8.7 0.00 0.00 0.00 38 1007.6
20260504214506 81 213 6.1 9.6 0.00 0.00 0.00 40 1007.6
20260504214005 81 180 7.0 10.4 0.00 0.00 0.00 38 1007.6
20260504213506 81 177 6.1 10.4 0.00 0.00 0.00 37 1007.5
20260504213004 81 213 6.1 10.4 0.00 0.00 0.00 40 1007.4
20260504212728 81 181 6.1 10.4 0.00 0.00 0.00 38 1007.6
20260504212002 81 221 6.1 10.4 0.00 0.00 0.00 36 1007.4
20260504211502 81 209 7.0 12.2 0.00 0.00 0.00 37 1007.5
20260504211002 81 191 7.0 12.2 0.00 0.00 0.00 37 1007.6
20260504210502 81 214 7.0 10.4 0.00 0.00 0.00 37 1007.6
20260504210001 82 211 7.0 12.2 0.00 0.00 0.00 38 1007.5
20260504205732 82 200 7.0 12.2 0.00 0.00 0.00 36 1007.7
20260504205003 82 226 6.1 11.3 0.00 0.00 0.00 36 1007.6
20260504204722 82 159 5.2 10.4 0.00 0.00 0.00 37 1007.7
20260504203956 82 207 5.2 9.6 0.00 0.00 0.00 37 1007.7
20260504203501 82 204 6.1 9.6 0.00 0.00 0.00 41 1007.8
20260504202955 82 207 7.0 11.3 0.00 0.00 0.00 38 1007.8
20260504202454 82 203 7.0 11.3 0.00 0.00 0.00 37 1007.8
20260504201954 82 200 7.0 13.9 0.00 0.00 0.00 39 1007.8
20260504201454 83 204 5.2 13.9 0.00 0.00 0.00 38 1008.0
20260504200953 82 214 5.2 8.7 0.00 0.00 0.00 41 1008.0
20260504200454 82 224 6.1 10.4 0.00 0.00 0.00 39 1008.1
20260504195954 82 175 7.0 10.4 0.00 0.00 0.00 38 1008.1
20260504195453 82 169 7.0 9.6 0.00 0.00 0.00 37 1008.2
20260504194954 82 208 7.0 12.2 0.00 0.00 0.00 40 1008.1
20260504194454 82 201 7.0 12.2 0.00 0.00 0.00 39 1008.3
20260504193953 82 203 7.8 12.2 0.00 0.00 0.00 41 1008.3
20260504193453 82 189 7.8 12.2 0.00 0.00 0.00 39 1008.4
20260504192954 82 190 7.8 13.0 0.00 0.00 0.00 39 1008.4
20260504192454 82 226 7.8 13.0 0.00 0.00 0.00 38 1008.6
20260504191954 82 209 6.1 10.4 0.00 0.00 0.00 37 1008.4
20260504191454 82 193 7.0 11.3 0.00 0.00 0.00 39 1008.3
20260504190954 81 213 7.8 11.3 0.00 0.00 0.00 38 1008.4
20260504190451 81 217 8.7 13.9 0.00 0.00 0.00 38 1008.5
20260504185947 82 207 7.8 13.9 0.00 0.00 0.00 38 1008.7
20260504185448 82 214 7.0 13.0 0.00 0.00 0.00 38 1008.7
20260504184948 82 174 7.0 10.4 0.00 0.00 0.00 40 1008.6
20260504184447 82 209 6.1 10.4 0.00 0.00 0.00 40 1008.7
20260504183948 82 225 6.1 8.7 0.00 0.00 0.00 39 1008.7
20260504183448 82 221 6.1 11.3 0.00 0.00 0.00 40 1008.8
20260504182947 82 219 6.1 11.3 0.00 0.00 0.00 37 1009.0
20260504182447 83 221 5.2 10.4 0.00 0.00 0.00 38 1009.1
20260504182209 83 198 5.2 9.6 0.00 0.00 0.00 42 1009.1
20260504181448 82 186 5.2 9.6 0.00 0.00 0.00 41 1009.2
20260504181156 82 220 6.1 10.4 0.00 0.00 0.00 40 1009.3
20260504181041 82 203 6.1 10.4 0.00 0.00 0.00 40 1009.2
20260504180432 81 191 5.2 9.6 0.00 0.00 0.00 42 1009.4
20260504175448 81 184 5.2 10.4 0.00 0.00 0.00 39 1009.4
20260504175214 81 218 6.1 10.4 0.00 0.00 0.00 40 1009.4
20260504174447 81 220 6.1 10.4 0.00 0.00 0.00 41 1009.4
20260504174207 81 223 6.1 9.6 0.00 0.00 0.00 40 1009.5
20260504173448 81 201 7.0 9.6 0.00 0.00 0.00 41 1009.5
20260504173207 81 207 7.0 13.0 0.00 0.00 0.00 39 1009.7
20260504172720 81 200 7.0 13.0 0.00 0.00 0.00 40 1009.7
20260504171947 81 206 7.0 10.4 0.00 0.00 0.00 43 1009.7
20260504171446 81 184 7.0 10.4 0.00 0.00 0.00 43 1009.9
20260504170946 81 198 5.2 10.4 0.00 0.00 0.00 43 1009.8
20260504170447 81 207 4.3 7.0 0.00 0.00 0.00 46 1009.8